This is the latest recevied weather packets stored in our database for station/object N3SBK. If no packets are shown the sender has not sent any weather packets the latest 10 day(s).
| Time | Temp. | Humidity | Pressure | Rain* | Wind** | Luminosity | Snow |
|---|---|---|---|---|---|---|---|
| 1788026515 | 27.22° C | 46% | 1016 hPa | 0 mm | - | 657 W/m² | - |
| 1788026214 | 27.22° C | 43% | 1016 hPa | 0 mm | - | 664 W/m² | - |
| 1788025914 | 26.67° C | 43% | 1016 hPa | 0 mm | - | 667 W/m² | - |
| 1788025609 | 26.67° C | 50% | 1015.9 hPa | 0 mm | - | 674 W/m² | - |
| 1788025308 | 26.67° C | 40% | 1016 hPa | 0 mm | - | 674 W/m² | - |
| 1788025008 | 26.67° C | 49% | 1015.9 hPa | 0 mm | - | 678 W/m² | - |
| 1788024703 | 26.67° C | 45% | 1015.7 hPa | 0 mm | - | 678 W/m² | - |
| 1788024399 | 26.67° C | 50% | 1015.6 hPa | 0 mm | - | 678 W/m² | - |
| 1788024094 | 26.11° C | 42% | 1015.8 hPa | 0 mm | - | 683 W/m² | - |
| 1788023789 | 26.11° C | 46% | 1015.7 hPa | 0 mm | - | 682 W/m² | - |
| 1788023485 | 26.11° C | 44% | 1015.8 hPa | 0 mm | - | 682 W/m² | - |
| 1788023180 | 26.11° C | 45% | 1015.8 hPa | 0 mm | - | 685 W/m² | - |
| 1788022880 | 26.11° C | 47% | 1015.9 hPa | 0 mm | - | 681 W/m² | - |
| 1788022577 | 25.56° C | 44% | 1016.1 hPa | 0 mm | - | 680 W/m² | - |
| 1788022272 | 25.56° C | 46% | 1016 hPa | 0 mm | - | 679 W/m² | - |
| 1788021971 | 25.56° C | 44% | 1016 hPa | 0 mm | - | 677 W/m² | - |
| 1788021666 | 25° C | 41% | 1016.1 hPa | 0 mm | - | 676 W/m² | - |
| 1788021364 | 25° C | 45% | 1016.4 hPa | 0 mm | - | 672 W/m² | - |
| 1788021059 | 25° C | 44% | 1016.4 hPa | 0 mm | - | 668 W/m² | - |
| 1788020755 | 25° C | 45% | 1016.5 hPa | 0 mm | - | 665 W/m² | - |
| 1788020454 | 25° C | 48% | 1016.6 hPa | 0 mm | - | 661 W/m² | - |
| 1788020150 | 24.44° C | 46% | 1016.4 hPa | 0 mm | - | 656 W/m² | - |
| 1788019846 | 25° C | 48% | 1016.5 hPa | 0 mm | - | 652 W/m² | - |
| 1788019545 | 25.56° C | 44% | 1016.6 hPa | 0 mm | - | 647 W/m² | - |
| 1788019244 | 25° C | 45% | 1016.6 hPa | 0 mm | - | 642 W/m² | - |
* Rain latest hour (hover to see other rain measurements)
** Current wind speed in m/s (hover to see current wind gust speed)